This is the latest recevied weather packets stored in our database for station/object CT7BNL-13. If no packets are shown the sender has not sent any weather packets the latest 10 day(s).
| Time | Temp. | Humidity | Pressure | Rain* | Wind** | Luminosity | Snow |
|---|---|---|---|---|---|---|---|
| 1787972674 | 13.89° C | 95% | 1028.1 hPa | 0 mm | - | 0 W/m² | - |
| 1787971764 | 13.89° C | 94% | 1028 hPa | 0 mm | - | 0 W/m² | - |
| 1787970865 | 14.44° C | 94% | 1028.2 hPa | 0 mm | - | 0 W/m² | - |
| 1787969965 | 14.44° C | 94% | 1028 hPa | 0 mm | - | 0 W/m² | - |
| 1787969064 | 14.44° C | 93% | 1028 hPa | 0 mm | - | 0 W/m² | - |
| 1787968166 | 14.44° C | 93% | 1028.2 hPa | 0 mm | - | 0 W/m² | - |
| 1787967265 | 15° C | 92% | 1028.4 hPa | 0 mm | - | 0 W/m² | - |
| 1787966364 | 15° C | 91% | 1028.4 hPa | 0 mm | - | 0 W/m² | - |
| 1787965465 | 15.56° C | 90% | 1028.4 hPa | 0 mm | - | 0 W/m² | - |
| 1787964564 | 15° C | 91% | 1028.5 hPa | 0 mm | - | 0 W/m² | - |
| 1787963667 | 15.56° C | 90% | 1028.4 hPa | 0 mm | - | 0 W/m² | - |
| 1787962764 | 15.56° C | 90% | 1028.6 hPa | 0 mm | - | 0 W/m² | - |
| 1787961864 | 15.56° C | 90% | 1028.7 hPa | 0 mm | - | 0 W/m² | - |
| 1787960965 | 15.56° C | 90% | 1028.9 hPa | 0 mm | - | 0 W/m² | - |
| 1787960064 | 15.56° C | 90% | 1029.1 hPa | 0 mm | - | 0 W/m² | - |
| 1787959165 | 16.11° C | 89% | 1029 hPa | 0 mm | - | 0 W/m² | - |
| 1787958266 | 16.11° C | 89% | 1029.1 hPa | 0 mm | - | 0 W/m² | - |
| 1787957365 | 16.11° C | 89% | 1029.2 hPa | 0 mm | - | 0 W/m² | - |
| 1787956465 | 16.11° C | 89% | 1029 hPa | 0 mm | - | 0 W/m² | - |
| 1787955564 | 16.11° C | 89% | 1029.1 hPa | 0 mm | - | 0 W/m² | - |
| 1787954665 | 16.67° C | 88% | 1029.2 hPa | 0 mm | - | 0 W/m² | - |
| 1787953765 | 16.67° C | 86% | 1029 hPa | 0 mm | - | 0 W/m² | - |
| 1787952864 | 16.67° C | 87% | 1029.3 hPa | 0 mm | - | 0 W/m² | - |
| 1787951965 | 16.67° C | 87% | 1029 hPa | 0 mm | - | 0 W/m² | - |
| 1787951064 | 17.22° C | 85% | 1029.2 hPa | 0 mm | - | 0 W/m² | - |
* Rain latest hour (hover to see other rain measurements)
** Current wind speed in m/s (hover to see current wind gust speed)